sat.trackr.live / text

‹ back to catalog

STARLINK-37351

NORAD 68742 · 2026-082Q

PAYLOAD ACTIVE UNKNOWN

§ Identity

Operator
Country
US
Launch date
2026-04-15
Launch site
AFWTR
Launch vehicle
Mass (kg)
RCS (m²)

Purposes: comms

External: N2YO · Heavens-Above · Gunter

§ Orbital elements

Epoch: 2026-09-19T21:38:32.692992Z

Period
93.91 min
Inclination
97.2856°
Eccentricity
0.0001979
Mean motion
15.33451092 rev/d
Perigee alt
464.2 km
Apogee alt
466.9 km
Semi-major
6,843.7 km
B*
3.3338e-4
RAAN
125.0600°
Arg perigee
86.3286°
Mean anomaly
273.8183°
Rev number
2,421

§ Raw data

STARLINK-373511 68742U 26082Q   26262.90176728  .00010705  00000+0  33338-3 0  99982 68742  97.2856 125.0600 0001979  86.3286 273.8183 15.33451092 24213

JSON: /api/v1/satellites/68742 · /tle

For live sub-satellite position, see the globe view (requires WebGL).

§ Visibility from observer

Set your observer location to see the next 7 days of passes ≥ 10°. The values pass through the URL so the page stays shareable.

No JS? Fill the form by hand. The geolocation button needs JavaScript.